Current weather by "City, St" or "zip code"  
 
Advertise Here

Current Conditions: Altus, Altus/Quartz Mountain Regional Airport, OK

Fair


81.0 F

Last Updated on Sep 16 2021, 9:55 pm CDT
Humidity: 52%
Wind Speed: SE 12.7 mph
Barometer 29.93 in
Dewpoint: 61.2 F
Visibility: 10.00 mi
Precip: --
Heat Index: 82 F
Wind Chill: NA
Current conditions at:

Altus, Altus/Quartz Mountain Regional Airport, OK (KAXS)

Lat: 34.69861 Lon: 99.33806

Local Radar Image active severe weather and emergency alerts image image weather storm and storm spotter reports image weather observation monitoring service image
Local
Radar
Active
Alerts
Storm Reports Obs
Monitoring

Sign-up For Email & Text Message Weather Alert Notification Services



Advertise Here

Observation History for Altus, Altus/Quartz Mountain Regional Airport, OK


Time Wind
(mph)
Vis
(mi)
Weather Precip (in) Temperature (F) Relative
Humidity
Wind
Chill
(F)
Heat
Index
(F)
Pressure
Air Dwpt altimeter
(in)
sea level
(mb)
Rmks
9:55 pm CDT SE 12.7 10.00 Fair -- 81.0 61.2 52% NA 82 29.93 M
8:55 pm CDT SE 10.4 10.00 Fair -- 82.0 60.4 48% NA 82 29.91 M
7:55 pm CDT SE 10.4 10.00 Partly Cloudy -- 86.0 59.2 41% NA 86 29.90 M
6:55 pm CDT S 10.4 G 16.1 10.00 NULL -- 89.0 57.9 35% NA 88 29.89 M
3:15 pm CDT S 9.2 G 17.3 10.00 Partly Cloudy -- 90.0 57.7 33% NA 89 29.92 M
2:55 pm CDT SE 11.5 10.00 Partly Cloudy -- 90.0 58.5 35% NA 89 29.92 M
1:55 pm CDT S 9.2 10.00 Partly Cloudy -- 89.0 59.4 36% NA 88 29.94 M
12:55 pm CDT S 10.4 G 18.4 10.00 Fair -- 89.0 60.4 39% NA 89 29.97 M
11:55 am CDT S 10.4 G 17.3 10.00 Fair -- 86.0 62.6 45% NA 87 29.99 M
10:55 am CDT SW 6.9 10.00 Fair -- 81.0 63.7 55% NA 82 30.00 M
9:55 am CDT S 3.5 10.00 Fair -- 76.0 63.5 65% NA NA 29.99 M
8:55 am CDT N 0.0 10.00 Fair -- 69.0 64.4 86% NA NA 29.99 M
7:55 am CDT N 0.0 10.00 Fair -- 65.0 61.3 89% NA NA 29.99 M
6:55 am CDT E 4.6 10.00 Fair -- 66.0 61.5 84% NA NA 29.97 M
5:55 am CDT E 6.9 10.00 Fair -- 67.0 61.9 83% NA NA 29.95 M
4:55 am CDT SE 5.8 10.00 Fair -- 68.0 62.2 82% NA NA 29.95 M
3:55 am CDT SE 3.5 10.00 Fair -- 69.0 62.1 80% NA NA 29.95 M
2:55 am CDT SE 4.6 10.00 Fair -- 69.0 62.6 79% NA NA 29.96 M
1:55 am CDT SE 4.6 10.00 Fair -- 71.0 62.8 75% NA NA 29.97 M
12:55 am CDT SE 6.9 10.00 Fair -- 73.0 63.1 73% NA NA 29.97 M
11:55 pm CDT SE 5.8 10.00 Fair -- 73.0 63.5 73% NA NA 29.97 M
10:55 pm CDT SE 6.9 10.00 Fair -- 74.0 63.7 69% NA NA 29.97 M

Regional Weather Observation


Altus, Altus/Quartz Mountain Regional Airport, OK (KAXS)

Fair
81.0 F

Altus Air Force Base, OK (KLTS)

Fair
77.0 F

Clinton, Clinton-Sherman Airport, OK (KCSM)

Fair
78.0 F

Elk City Regional Business Airport, OK (KELK)

Fair
77.0 F

Vernon, Wilbarger County Airport, TX (KF05)

Fair
82.0 F

Frederick, Frederick Municipal Airport, OK (KFDR)

Fair
80.0 F
Advertise Here


Advertise Here